Total_Precipitation_Accumulation
0.17 0.25 0.58 0.81 0.89 0.90 0.91 0.92 0.89 0.83 0.79 0.83 0.89 1.00 1.02 1.05 1.08 1.02 1.07 1.11 1.22 1.40 1.53 1.59 1.66 1.69 1.54 1.30 1.10 0.95 0.88 0.83 0.80 0.84 0.91 1.02 1.03 0.91 0.78 0.65 0.53 0.64 0.95
0.16 0.24 0.54 0.72 0.85 0.89 0.93 0.96 0.92 0.86 0.83 0.86 0.90 0.98 1.03 1.02 1.09 1.14 1.19 1.25 1.37 1.49 1.49 1.55 1.58 1.56 1.42 1.22 1.07 0.88 0.77 0.71 0.58 0.52 0.54 0.64 0.85 0.88 0.77 0.69 0.64 0.85 1.00
0.17 0.23 0.45 0.65 0.83 0.89 0.95 0.95 0.90 0.88 0.91 0.97 1.00 1.02 1.07 1.07 1.09 1.19 1.28 1.36 1.42 1.48 1.52 1.52 1.46 1.45 1.34 1.22 1.12 0.96 0.77 0.69 0.55 0.43 0.39 0.41 0.62 0.87 0.85 0.78 0.79 0.97 1.02
0.19 0.23 0.37 0.62 0.84 0.96 1.01 1.01 0.96 0.96 1.01 1.11 1.13 1.13 1.16 1.19 1.20 1.26 1.33 1.39 1.37 1.37 1.46 1.45 1.44 1.41 1.33 1.26 1.12 0.94 0.79 0.65 0.51 0.38 0.30 0.36 0.61 0.98 0.98 0.89 0.85 0.95 1.01
0.17 0.23 0.38 0.64 0.89 1.09 1.13 1.14 1.10 1.07 1.09 1.18 1.24 1.27 1.27 1.31 1.29 1.33 1.32 1.29 1.29 1.25 1.26 1.25 1.35 1.36 1.30 1.20 1.12 1.00 0.84 0.66 0.47 0.34 0.29 0.41 0.67 1.03 1.00 0.94 0.91 0.94 0.96
0.20 0.26 0.42 0.69 0.96 1.10 1.13 1.11 1.15 1.19 1.21 1.28 1.34 1.40 1.44 1.49 1.43 1.39 1.31 1.28 1.21 1.19 1.20 1.22 1.27 1.31 1.26 1.16 1.08 1.07 1.06 0.85 0.54 0.36 0.31 0.39 0.55 0.88 0.99 1.06 1.06 0.99 0.95
0.26 0.35 0.49 0.78 1.05 1.16 1.22 1.22 1.24 1.35 1.42 1.42 1.43 1.51 1.60 1.64 1.57 1.43 1.34 1.30 1.29 1.27 1.28 1.30 1.32 1.33 1.22 1.11 1.06 1.03 1.03 0.84 0.56 0.45 0.35 0.35 0.49 0.80 1.12 1.25 1.29 1.14 1.05
0.29 0.42 0.59 0.93 1.11 1.21 1.31 1.33 1.34 1.44 1.57 1.63 1.65 1.74 1.77 1.72 1.65 1.58 1.43 1.34 1.39 1.39 1.36 1.34 1.38 1.39 1.30 1.16 1.04 0.98 0.92 0.68 0.56 0.58 0.51 0.47 0.60 0.93 1.21 1.40 1.37 1.23 1.17
0.44 0.58 0.70 0.94 1.12 1.29 1.45 1.50 1.49 1.57 1.64 1.69 1.84 1.88 1.84 1.80 1.75 1.70 1.57 1.44 1.47 1.47 1.50 1.43 1.34 1.24 1.17 1.19 1.17 1.05 0.87 0.68 0.57 0.69 0.65 0.75 0.73 1.03 1.23 1.38 1.45 1.35 1.26
0.63 0.74 0.88 1.01 1.17 1.33 1.51 1.63 1.70 1.73 1.77 1.84 1.90 1.86 1.84 1.91 1.92 1.84 1.63 1.54 1.53 1.52 1.54 1.51 1.38 1.21 1.09 1.11 1.19 1.09 0.88 0.74 0.60 0.67 0.88 0.83 0.81 1.18 1.39 1.41 1.45 1.40 1.35
0.83 0.92 1.10 1.19 1.28 1.43 1.57 1.64 1.89 2.04 2.07 2.08 2.06 1.99 2.04 2.03 1.96 1.85 1.63 1.55 1.52 1.57 1.54 1.57 1.50 1.36 1.20 1.12 1.16 1.10 0.89 0.75 0.64 0.69 0.76 0.75 0.90 1.24 1.56 1.61 1.59 1.51 1.42
0.80 0.98 1.18 1.40 1.49 1.64 1.70 1.83 2.04 2.15 2.26 2.26 1.98 1.98 2.05 1.95 1.93 1.85 1.84 1.85 1.69 1.67 1.68 1.59 1.52 1.45 1.31 1.11 1.08 1.04 0.83 0.72 0.77 0.68 0.68 0.74 0.91 1.24 1.52 1.68 1.78 1.74 1.62
0.83 0.99 1.22 1.51 1.74 1.86 1.83 1.81 1.96 2.13 2.23 2.29 2.03 1.88 1.91 1.97 2.00 2.01 1.88 1.94 1.89 1.81 1.82 1.67 1.59 1.41 1.24 1.14 1.09 0.98 0.78 0.70 0.69 0.64 0.69 0.83 0.92 1.13 1.41 1.62 1.78 1.90 1.87
0.96 1.07 1.28 1.56 1.85 1.97 2.03 1.94 1.94 2.06 2.12 2.18 2.12 2.03 1.96 1.99 1.96 1.84 1.77 1.66 1.65 1.58 1.57 1.57 1.48 1.35 1.23 1.11 1.08 1.03 0.90 0.77 0.65 0.63 0.63 0.77 0.92 0.99 1.18 1.41 1.60 1.82 1.95
0.99 1.14 1.38 1.59 1.84 2.10 2.23 2.21 2.13 2.17 2.02 2.09 2.24 2.29 2.14 1.99 1.95 1.91 1.79 1.70 1.61 1.53 1.47 1.45 1.37 1.31 1.21 1.12 1.06 1.05 0.97 0.82 0.70 0.65 0.61 0.73 0.88 0.90 1.03 1.26 1.51 1.80 2.07
0.96 1.14 1.44 1.67 1.83 2.13 2.28 2.27 2.26 2.34 2.26 2.25 2.27 2.26 2.31 2.26 2.10 2.04 1.93 1.77 1.68 1.59 1.49 1.46 1.40 1.36 1.29 1.17 1.06 0.96 0.96 0.94 0.83 0.79 0.71 0.71 0.77 0.78 0.88 1.11 1.37 1.66 2.07
0.95 1.15 1.45 1.69 1.91 2.11 2.21 2.28 2.33 2.37 2.42 2.37 2.30 2.32 2.39 2.34 2.29 2.20 2.08 1.94 1.77 1.73 1.69 1.61 1.56 1.48 1.42 1.29 1.16 1.04 0.95 0.96 0.90 0.86 0.82 0.77 0.75 0.72 0.75 0.93 1.16 1.46 1.80
1.06 1.15 1.36 1.64 1.84 2.06 2.20 2.26 2.27 2.37 2.42 2.45 2.47 2.42 2.42 2.47 2.47 2.47 2.24 2.09 1.86 1.81 1.82 1.79 1.68 1.60 1.48 1.36 1.27 1.12 0.98 0.93 0.91 0.90 0.89 0.84 0.82 0.76 0.74 0.79 0.89 1.16 1.51
1.14 1.22 1.40 1.60 1.74 1.93 2.20 2.37 2.31 2.34 2.46 2.51 2.53 2.57 2.45 2.47 2.54 2.62 2.56 2.34 2.15 2.04 1.90 1.82 1.73 1.63 1.55 1.44 1.37 1.28 1.14 1.03 0.96 0.96 0.90 0.83 0.77 0.78 0.77 0.80 0.87 0.97 1.22
1.25 1.32 1.44 1.60 1.77 1.94 2.29 2.51 2.60 2.51 2.53 2.56 2.49 2.45 2.47 2.45 2.43 2.47 2.57 2.56 2.45 2.36 2.19 2.01 1.89 1.71 1.59 1.52 1.52 1.50 1.33 1.17 1.09 1.04 1.00 0.90 0.80 0.74 0.77 0.81 0.87 0.92 1.05
1.31 1.35 1.50 1.57 1.72 1.95 2.20 2.38 2.43 2.49 2.45 2.43 2.39 2.39 2.39 2.40 2.39 2.37 2.30 2.39 2.41 2.35 2.24 2.12 2.03 1.97 1.82 1.66 1.74 1.80 1.67 1.38 1.18 1.07 1.03 0.99 0.89 0.79 0.75 0.77 0.84 0.89 0.96
1.38 1.38 1.51 1.63 1.73 1.78 1.91 2.10 2.21 2.37 2.45 2.43 2.35 2.37 2.34 2.30 2.29 2.37 2.36 2.24 2.22 2.22 2.20 2.11 2.02 1.97 1.93 1.79 1.78 1.89 1.89 1.78 1.42 1.08 0.98 0.95 0.94 0.92 0.85 0.79 0.80 0.87 0.94
1.47 1.48 1.51 1.60 1.76 1.83 1.95 2.18 2.33 2.56 2.67 2.71 2.52 2.36 2.32 2.32 2.21 2.17 2.30 2.30 2.20 2.15 2.12 2.06 1.97 1.87 1.86 1.74 1.57 1.78 1.87 1.62 1.31 1.10 0.97 0.88 0.85 0.93 0.93 0.88 0.85 0.82 0.90
1.35 1.48 1.56 1.68 1.79 1.82 2.02 2.22 2.25 2.42 2.48 2.42 2.31 2.25 2.19 2.25 2.26 2.16 2.15 2.23 2.24 2.13 2.01 1.98 2.00 1.94 1.94 1.94 1.72 1.51 1.48 1.38 1.37 1.20 1.03 0.97 0.91 0.88 0.93 0.93 0.92 0.87 0.88
1.15 1.35 1.51 1.71 1.86 1.89 1.93 2.13 2.21 2.18 2.25 2.36 2.42 2.38 2.31 2.27 2.25 2.20 2.18 2.19 2.17 2.13 1.99 1.91 1.94 2.00 2.02 2.01 1.92 1.68 1.49 1.27 1.19 1.28 1.09 0.98 1.06 1.01 0.95 0.97 0.99 0.98 0.94
1.08 1.26 1.42 1.61 1.77 1.88 1.88 1.99 2.17 2.15 2.14 2.27 2.46 2.50 2.43 2.35 2.29 2.19 2.10 2.13 2.08 1.98 1.92 1.86 1.85 1.84 1.88 1.90 1.85 1.76 1.67 1.56 1.33 1.29 1.21 0.99 0.98 1.00 1.02 1.04 1.09 1.06 1.02